Year,Month,Day,Hour,Minute,Value (Times are PST for temperature in C)
2008,04,02,01,05,5.90
2008,04,02,01,06,5.90
2008,04,02,01,07,5.90
2008,04,02,01,08,5.90
2008,04,02,01,09,5.90
2008,04,02,01,10,5.90
2008,04,02,01,11,5.90
2008,04,02,01,13,5.90
2008,04,02,01,14,5.90
2008,04,02,01,15,5.90
2008,04,02,01,16,5.90
2008,04,02,01,17,5.90
2008,04,02,01,18,5.90
2008,04,02,01,19,5.90
2008,04,02,01,20,5.90
2008,04,02,01,21,5.90
2008,04,02,01,22,5.90
2008,04,02,01,23,5.90
2008,04,02,01,24,5.90
2008,04,02,01,25,5.90
2008,04,02,01,26,5.90
2008,04,02,01,27,5.90
2008,04,02,01,28,5.90
2008,04,02,01,29,5.90
2008,04,02,01,30,5.90
2008,04,02,01,31,5.90
2008,04,02,01,32,5.90
2008,04,02,01,33,5.90
2008,04,02,01,34,5.90
2008,04,02,01,35,5.90
2008,04,02,01,36,5.90
2008,04,02,01,37,5.80
2008,04,02,01,38,5.80
2008,04,02,01,39,5.80
2008,04,02,01,40,5.80
2008,04,02,01,41,5.80
2008,04,02,01,43,5.80
2008,04,02,01,44,5.80
2008,04,02,01,45,5.80
2008,04,02,01,46,5.80
2008,04,02,01,47,5.80
2008,04,02,01,49,5.80
2008,04,02,01,50,5.80
2008,04,02,01,51,5.80
2008,04,02,01,52,5.80
2008,04,02,01,53,5.80
2008,04,02,01,54,5.80
2008,04,02,01,55,5.80
2008,04,02,01,56,5.80
2008,04,02,01,57,5.80
2008,04,02,01,58,5.80
2008,04,02,01,59,5.80
2008,04,02,02,00,5.80
2008,04,02,02,01,5.90
2008,04,02,02,02,5.90
2008,04,02,02,03,5.90
2008,04,02,02,05,5.90
2008,04,02,02,06,5.90
2008,04,02,02,07,5.90
2008,04,02,02,08,5.90
2008,04,02,02,09,5.90
2008,04,02,02,10,5.90
2008,04,02,02,11,5.80
2008,04,02,02,12,5.80
2008,04,02,02,13,5.80
2008,04,02,02,14,5.80
2008,04,02,02,15,5.80
2008,04,02,02,17,5.80
2008,04,02,02,18,5.80
2008,04,02,02,19,5.80
2008,04,02,02,20,5.80
2008,04,02,02,21,5.80
2008,04,02,02,22,5.80
2008,04,02,02,23,5.80
2008,04,02,02,24,5.80
2008,04,02,02,25,5.80
2008,04,02,02,26,5.70
2008,04,02,02,27,5.70
2008,04,02,02,28,5.70
2008,04,02,02,29,5.70
2008,04,02,02,30,5.70
2008,04,02,02,31,5.70
2008,04,02,02,32,5.70
2008,04,02,02,33,5.70
2008,04,02,02,34,5.70
2008,04,02,02,35,5.70
2008,04,02,02,36,5.70
2008,04,02,02,37,5.80
2008,04,02,02,38,5.80
2008,04,02,02,39,5.80
2008,04,02,02,40,5.80
2008,04,02,02,41,5.80
2008,04,02,02,42,5.80
2008,04,02,02,43,5.80
2008,04,02,02,44,5.80
2008,04,02,02,45,5.80
2008,04,02,02,46,5.80
2008,04,02,02,47,5.80
2008,04,02,02,48,5.80
2008,04,02,02,49,5.80
2008,04,02,02,50,5.80
2008,04,02,02,51,5.80
2008,04,02,02,52,5.80
2008,04,02,02,53,5.80
2008,04,02,02,54,5.80
2008,04,02,02,55,5.80
2008,04,02,02,57,5.70
2008,04,02,02,58,5.70
2008,04,02,02,59,5.70
2008,04,02,03,00,5.70
2008,04,02,03,01,5.60
2008,04,02,03,02,5.60
2008,04,02,03,03,5.60
2008,04,02,03,04,5.60
2008,04,02,03,05,5.60
2008,04,02,03,06,5.60
2008,04,02,03,07,5.60
2008,04,02,03,08,5.60
2008,04,02,03,09,5.60
2008,04,02,03,10,5.60
2008,04,02,03,11,5.60
2008,04,02,03,12,5.60
2008,04,02,03,13,5.60
2008,04,02,03,14,5.60
2008,04,02,03,15,5.60
2008,04,02,03,17,5.60
2008,04,02,03,18,5.60
2008,04,02,03,20,5.60
2008,04,02,03,21,5.60
2008,04,02,03,22,5.60
2008,04,02,03,23,5.60
2008,04,02,03,24,5.60
2008,04,02,03,25,5.40
2008,04,02,03,26,5.40
2008,04,02,03,27,5.40
2008,04,02,03,28,5.40
2008,04,02,03,29,5.40
2008,04,02,03,30,5.40
2008,04,02,03,31,5.40
2008,04,02,03,32,5.40
2008,04,02,03,33,5.40
2008,04,02,03,34,5.40
2008,04,02,03,35,5.40
2008,04,02,03,36,5.40
2008,04,02,03,37,5.40
2008,04,02,03,38,5.40
2008,04,02,03,39,5.40
2008,04,02,03,40,5.40
2008,04,02,03,41,5.40
2008,04,02,03,42,5.40
2008,04,02,03,43,5.40
2008,04,02,03,44,5.40
2008,04,02,03,45,5.40
2008,04,02,03,46,5.40
2008,04,02,03,47,5.40
2008,04,02,03,48,5.40
2008,04,02,03,49,5.40
2008,04,02,03,50,5.40
2008,04,02,03,51,5.40
2008,04,02,03,52,5.40
2008,04,02,03,53,5.40
2008,04,02,03,54,5.20
2008,04,02,03,55,5.20
2008,04,02,03,56,5.20
2008,04,02,03,57,5.20
2008,04,02,03,58,5.20
2008,04,02,03,59,5.20
2008,04,02,04,00,5.10
2008,04,02,04,01,5.10
2008,04,02,04,02,5.10
2008,04,02,04,03,5.10
2008,04,02,04,04,5.10
2008,04,02,04,05,5.10
2008,04,02,04,06,5.10
2008,04,02,04,07,5.10
2008,04,02,04,08,5.10
2008,04,02,04,09,5.10
2008,04,02,04,10,5.10
2008,04,02,04,11,5.10
2008,04,02,04,12,5.10
2008,04,02,04,13,5.10
2008,04,02,04,14,5.10
2008,04,02,04,15,5.10
2008,04,02,04,16,5.10
2008,04,02,04,17,5.10
2008,04,02,04,18,5.10
2008,04,02,04,19,5.10
2008,04,02,04,20,5.10
2008,04,02,04,21,5.10
2008,04,02,04,22,5.10
2008,04,02,04,23,5.10
2008,04,02,04,24,5.10
2008,04,02,04,25,5.10
2008,04,02,04,26,5.10
2008,04,02,04,27,5.10
2008,04,02,04,28,5.10
2008,04,02,04,29,5.00
2008,04,02,04,30,5.00
2008,04,02,04,31,5.00
2008,04,02,04,32,5.00
2008,04,02,04,33,5.00
2008,04,02,04,34,5.00
2008,04,02,04,35,5.00
2008,04,02,04,36,5.00
2008,04,02,04,37,5.00
2008,04,02,04,38,5.00
2008,04,02,04,39,5.00
2008,04,02,04,40,5.00
2008,04,02,04,41,5.00
2008,04,02,04,43,5.00
2008,04,02,04,44,5.00
2008,04,02,04,45,5.00
2008,04,02,04,46,5.00
2008,04,02,04,47,5.00
2008,04,02,04,48,5.00
2008,04,02,04,49,5.00
2008,04,02,04,50,5.00
2008,04,02,04,52,5.00
2008,04,02,04,53,5.30
2008,04,02,04,54,5.30
2008,04,02,04,55,5.30
2008,04,02,04,57,5.30
2008,04,02,04,58,5.30
2008,04,02,05,00,5.30
2008,04,02,05,02,5.30
2008,04,02,05,03,5.30
2008,04,02,05,04,5.30
2008,04,02,05,06,5.30
2008,04,02,05,07,5.30
2008,04,02,05,08,5.20
2008,04,02,05,10,5.20
2008,04,02,05,13,5.20
2008,04,02,05,14,5.20
2008,04,02,05,15,5.20
2008,04,02,05,16,5.20
2008,04,02,05,18,5.20
2008,04,02,05,19,5.20
2008,04,02,05,20,5.20
2008,04,02,05,21,5.20
2008,04,02,05,22,4.90
2008,04,02,05,23,4.90
2008,04,02,05,24,4.90
2008,04,02,05,26,4.90
2008,04,02,05,28,4.90
2008,04,02,05,29,4.90
2008,04,02,05,33,4.70
2008,04,02,05,34,4.70
2008,04,02,05,35,4.70
2008,04,02,05,37,4.60
2008,04,02,05,39,4.60
2008,04,02,05,40,4.60
2008,04,02,05,42,4.60
2008,04,02,05,43,4.60
2008,04,02,05,44,4.60
2008,04,02,05,47,4.60
2008,04,02,05,48,4.60
2008,04,02,05,50,4.60
2008,04,02,05,51,4.60
2008,04,02,05,53,4.60
2008,04,02,05,54,4.60
2008,04,02,05,55,4.60
2008,04,02,05,56,4.60
2008,04,02,05,57,4.60
2008,04,02,05,59,4.60
2008,04,02,06,00,4.60
2008,04,02,06,02,4.50
2008,04,02,06,04,4.50
2008,04,02,06,05,4.40
2008,04,02,06,07,4.40
2008,04,02,06,08,4.40
2008,04,02,06,10,4.40
2008,04,02,06,12,4.40
2008,04,02,06,13,4.40
2008,04,02,06,14,4.40
2008,04,02,06,16,4.40
2008,04,02,06,17,4.40
2008,04,02,06,18,4.40
2008,04,02,06,19,4.40
2008,04,02,06,21,4.40
2008,04,02,06,22,4.40
2008,04,02,06,23,4.40
2008,04,02,06,24,4.40
2008,04,02,06,28,4.40
2008,04,02,06,31,4.00
2008,04,02,06,32,4.00
2008,04,02,06,33,4.00
2008,04,02,06,35,4.00
2008,04,02,06,37,4.00
2008,04,02,06,42,4.00
2008,04,02,06,43,4.00
2008,04,02,06,44,4.00
2008,04,02,06,45,4.00
2008,04,02,06,46,4.00
2008,04,02,06,47,4.00
2008,04,02,06,48,4.00
2008,04,02,06,49,4.10
2008,04,02,06,50,4.10
2008,04,02,06,51,4.10
2008,04,02,06,52,4.10
2008,04,02,06,53,4.10
2008,04,02,06,54,4.10
2008,04,02,06,55,4.00
2008,04,02,06,56,4.00
2008,04,02,06,57,4.00
2008,04,02,06,58,4.00
2008,04,02,06,59,4.00
2008,04,02,07,00,3.90
2008,04,02,07,01,3.90
2008,04,02,07,02,3.90
2008,04,02,07,03,3.90
2008,04,02,07,04,3.90
2008,04,02,07,05,3.90
2008,04,02,07,06,3.90
2008,04,02,07,07,3.90
2008,04,02,07,08,3.90
2008,04,02,07,09,3.90
2008,04,02,07,10,3.90
2008,04,02,07,11,3.90
2008,04,02,07,12,3.90
2008,04,02,07,13,3.90
2008,04,02,07,14,3.90
2008,04,02,07,15,3.90
2008,04,02,07,16,3.90
2008,04,02,07,17,3.90
2008,04,02,07,18,3.90
2008,04,02,07,19,3.90
2008,04,02,07,20,3.90
2008,04,02,07,21,3.90
2008,04,02,07,22,3.90
2008,04,02,07,23,3.90
2008,04,02,07,24,3.90
2008,04,02,07,25,3.90
2008,04,02,07,26,3.90
2008,04,02,07,27,3.90
2008,04,02,07,28,3.90
2008,04,02,07,29,3.90
2008,04,02,07,30,3.90
2008,04,02,07,31,3.90
2008,04,02,07,32,3.90
2008,04,02,07,33,3.90
2008,04,02,07,34,3.90
2008,04,02,07,35,3.90
2008,04,02,07,36,3.90
2008,04,02,07,37,3.90
2008,04,02,07,38,3.90
2008,04,02,07,39,3.90
2008,04,02,07,40,3.90
2008,04,02,07,42,3.90
2008,04,02,07,43,3.90
2008,04,02,07,44,3.90
2008,04,02,07,45,3.90
2008,04,02,07,46,3.90
2008,04,02,07,47,3.90
2008,04,02,07,48,3.90
2008,04,02,07,49,3.90
2008,04,02,07,50,3.90
2008,04,02,07,51,3.90
2008,04,02,07,52,3.90
2008,04,02,07,53,3.90
2008,04,02,07,54,3.90
2008,04,02,07,55,3.90
2008,04,02,07,56,3.90
2008,04,02,07,57,3.90
2008,04,02,07,58,3.90
2008,04,02,07,59,3.90
2008,04,02,08,00,3.90
2008,04,02,08,02,3.90
2008,04,02,08,03,3.90
2008,04,02,08,04,4.10
2008,04,02,08,05,4.10
2008,04,02,08,06,4.10
2008,04,02,08,07,4.10
2008,04,02,08,08,4.10
2008,04,02,08,09,4.10
2008,04,02,08,10,4.10
2008,04,02,08,11,4.10
2008,04,02,08,12,4.10
2008,04,02,08,13,4.10
2008,04,02,08,14,4.10
2008,04,02,08,15,4.10
2008,04,02,08,16,4.10
2008,04,02,08,17,4.10
2008,04,02,08,18,4.10
2008,04,02,08,19,4.10
2008,04,02,08,20,4.10
2008,04,02,08,21,4.70
2008,04,02,08,22,4.70
2008,04,02,08,23,4.70
2008,04,02,08,24,4.70
2008,04,02,08,25,4.70
2008,04,02,08,26,4.70
2008,04,02,08,27,4.90
2008,04,02,08,28,4.90
2008,04,02,08,29,4.90
2008,04,02,08,30,4.90
2008,04,02,08,31,5.00
2008,04,02,08,32,5.00
2008,04,02,08,33,5.00
2008,04,02,08,34,5.00
2008,04,02,08,35,5.00
2008,04,02,08,36,5.10
2008,04,02,08,37,5.10
2008,04,02,08,38,5.10
2008,04,02,08,39,5.10
2008,04,02,08,40,5.10
2008,04,02,08,41,5.10
2008,04,02,08,42,5.10
2008,04,02,08,43,5.10
2008,04,02,08,44,5.10
2008,04,02,08,45,5.10
2008,04,02,08,46,5.10
2008,04,02,08,47,5.10
2008,04,02,08,48,5.10
2008,04,02,08,49,5.10
2008,04,02,08,50,5.10
2008,04,02,08,51,5.30
2008,04,02,08,52,5.30
2008,04,02,08,53,5.30
2008,04,02,08,54,5.30
2008,04,02,08,55,5.30
2008,04,02,08,56,5.30
2008,04,02,08,57,5.40
2008,04,02,08,58,5.40
2008,04,02,08,59,5.40
2008,04,02,09,00,5.40
2008,04,02,09,01,5.60
2008,04,02,09,02,5.60
2008,04,02,09,03,5.60
2008,04,02,09,04,5.60
2008,04,02,09,05,5.60
2008,04,02,09,06,5.60
2008,04,02,09,07,5.60
2008,04,02,09,08,5.60
2008,04,02,09,09,5.60
2008,04,02,09,10,5.60
2008,04,02,09,11,5.60
2008,04,02,09,12,5.60
2008,04,02,09,13,5.60
2008,04,02,09,14,5.60
2008,04,02,09,15,5.60
2008,04,02,09,16,5.60
2008,04,02,09,17,5.60
2008,04,02,09,18,5.60
2008,04,02,09,19,5.60
2008,04,02,09,20,5.60
2008,04,02,09,21,5.60
2008,04,02,09,22,5.60
2008,04,02,09,23,5.60
2008,04,02,09,24,5.60
2008,04,02,09,25,5.60
2008,04,02,09,26,5.60
2008,04,02,09,27,5.60
2008,04,02,09,28,5.60
2008,04,02,09,29,5.60
2008,04,02,09,30,5.60
2008,04,02,09,32,5.70
2008,04,02,09,33,5.70
2008,04,02,09,34,5.70
2008,04,02,09,35,5.70
2008,04,02,09,36,5.70
2008,04,02,09,37,5.70
2008,04,02,09,38,5.70
2008,04,02,09,39,5.70
2008,04,02,09,40,5.70
2008,04,02,09,41,5.70
2008,04,02,09,42,5.70
2008,04,02,09,43,5.70
2008,04,02,09,44,5.70
2008,04,02,09,45,5.70
2008,04,02,09,46,5.70
2008,04,02,09,47,5.70
2008,04,02,09,48,5.70
2008,04,02,09,49,5.70
2008,04,02,09,50,5.70
2008,04,02,09,51,5.90
2008,04,02,09,52,5.90
2008,04,02,09,53,5.90
2008,04,02,09,54,5.90
2008,04,02,09,55,5.90
2008,04,02,09,56,6.00
2008,04,02,09,57,6.00
2008,04,02,09,58,6.00
2008,04,02,09,59,6.00
2008,04,02,10,00,6.20
2008,04,02,10,01,6.20
2008,04,02,10,02,6.20
2008,04,02,10,03,6.20
2008,04,02,10,04,6.20
2008,04,02,10,05,6.20
2008,04,02,10,06,6.20
2008,04,02,10,07,6.20
2008,04,02,10,08,6.20
2008,04,02,10,09,6.20
2008,04,02,10,10,6.20
2008,04,02,10,11,6.20
2008,04,02,10,12,6.20
2008,04,02,10,13,6.20
2008,04,02,10,14,6.20
2008,04,02,10,15,6.20
2008,04,02,10,16,6.20
2008,04,02,10,17,6.20
2008,04,02,10,18,6.20
2008,04,02,10,19,6.20
2008,04,02,10,20,6.50
2008,04,02,10,21,6.50
2008,04,02,10,22,6.50
2008,04,02,10,23,6.50
2008,04,02,10,24,6.50
2008,04,02,10,25,6.50
2008,04,02,10,26,6.50
2008,04,02,10,27,6.50
2008,04,02,10,28,6.50
2008,04,02,10,29,6.50
2008,04,02,10,30,6.50
2008,04,02,10,31,6.70
2008,04,02,10,32,6.70
2008,04,02,10,33,6.70
2008,04,02,10,34,6.90
2008,04,02,10,35,6.90
2008,04,02,10,36,6.90
2008,04,02,10,37,6.90
2008,04,02,10,38,6.90
2008,04,02,10,39,6.90
2008,04,02,10,40,6.90
2008,04,02,10,41,6.90
2008,04,02,10,42,6.90
2008,04,02,10,43,6.90
2008,04,02,10,44,6.90
2008,04,02,10,45,6.90
2008,04,02,10,46,6.90
2008,04,02,10,47,6.90
2008,04,02,10,48,6.90
2008,04,02,10,49,6.90
2008,04,02,10,50,6.90
2008,04,02,10,51,6.90
2008,04,02,10,52,6.90
2008,04,02,10,53,6.90
2008,04,02,10,54,6.90
2008,04,02,10,55,7.10
2008,04,02,10,56,7.10
2008,04,02,10,57,7.10
2008,04,02,10,58,7.10
2008,04,02,10,59,7.10
2008,04,02,11,00,7.10
2008,04,02,11,01,7.10
2008,04,02,11,02,7.10
2008,04,02,11,03,7.20
2008,04,02,11,04,7.20
2008,04,02,11,05,7.20
2008,04,02,11,06,7.20
2008,04,02,11,07,7.20
2008,04,02,11,08,7.20
2008,04,02,11,09,7.20
2008,04,02,11,10,7.20
2008,04,02,11,11,7.20
2008,04,02,11,12,7.20
2008,04,02,11,13,7.20
2008,04,02,11,14,7.20
2008,04,02,11,15,7.20
2008,04,02,11,16,7.20
2008,04,02,11,17,7.20
2008,04,02,11,18,7.10
2008,04,02,11,19,7.10
2008,04,02,11,20,7.10
2008,04,02,11,21,7.10
2008,04,02,11,22,7.10
2008,04,02,11,23,7.10
2008,04,02,11,24,7.00
2008,04,02,11,25,7.00
2008,04,02,11,26,7.00
2008,04,02,11,27,7.00
2008,04,02,11,28,7.00
2008,04,02,11,29,7.30
2008,04,02,11,30,7.30
2008,04,02,11,31,7.30
2008,04,02,11,32,7.30
2008,04,02,11,33,7.30
2008,04,02,11,34,7.30
2008,04,02,11,35,7.30
2008,04,02,11,36,7.30
2008,04,02,11,37,7.30
2008,04,02,11,38,7.30
2008,04,02,11,39,7.30
2008,04,02,11,40,7.30
2008,04,02,11,41,7.30
2008,04,02,11,42,7.30
2008,04,02,11,43,7.30
2008,04,02,11,44,7.30
2008,04,02,11,45,7.30
2008,04,02,11,46,7.30
2008,04,02,11,47,7.30
2008,04,02,11,48,7.30
2008,04,02,11,49,7.40
2008,04,02,11,50,7.40
2008,04,02,11,51,7.40
2008,04,02,11,53,7.40
2008,04,02,11,54,7.40
2008,04,02,11,55,7.30
2008,04,02,11,56,7.30
2008,04,02,11,57,7.30
2008,04,02,11,58,7.30
2008,04,02,11,59,7.30
2008,04,02,12,00,7.30
2008,04,02,12,01,7.30
2008,04,02,12,02,7.30
2008,04,02,12,03,7.30
2008,04,02,12,04,7.30
2008,04,02,12,05,7.30
2008,04,02,12,06,7.30
2008,04,02,12,07,7.30
2008,04,02,12,08,7.30
2008,04,02,12,09,7.30
2008,04,02,12,10,7.30
2008,04,02,12,11,7.30
2008,04,02,12,12,7.30
2008,04,02,12,13,7.30
2008,04,02,12,14,7.30
2008,04,02,12,15,7.30
2008,04,02,12,16,7.30
2008,04,02,12,17,7.30
2008,04,02,12,18,7.30
2008,04,02,12,19,7.30
2008,04,02,12,20,7.20
2008,04,02,12,21,7.20
2008,04,02,12,22,7.20
2008,04,02,12,23,7.20
2008,04,02,12,24,7.20
2008,04,02,12,25,7.20
2008,04,02,12,26,7.40
2008,04,02,12,27,7.40
2008,04,02,12,28,7.40
2008,04,02,12,29,7.40
2008,04,02,12,30,7.40
2008,04,02,12,31,7.40
2008,04,02,12,32,7.40
2008,04,02,12,33,7.40
2008,04,02,12,34,7.30
2008,04,02,12,35,7.30
2008,04,02,12,36,7.30
2008,04,02,12,37,7.30
2008,04,02,12,38,7.30
2008,04,02,12,39,7.30
2008,04,02,12,40,7.30
2008,04,02,12,41,7.30
2008,04,02,12,42,7.30
2008,04,02,12,43,7.30
2008,04,02,12,44,7.30
2008,04,02,12,45,7.30
2008,04,02,12,46,7.30
2008,04,02,12,47,7.30
2008,04,02,12,48,7.30
2008,04,02,12,49,7.30
2008,04,02,12,50,7.30
2008,04,02,12,51,7.30
2008,04,02,12,52,7.30
2008,04,02,12,53,7.30
2008,04,02,12,54,7.30
2008,04,02,12,55,7.30
2008,04,02,12,56,7.30
2008,04,02,12,57,7.30
2008,04,02,12,58,7.30
2008,04,02,12,59,7.30
2008,04,02,13,00,7.30
2008,04,02,13,01,7.40
2008,04,02,13,02,7.40
2008,04,02,13,03,7.40
2008,04,02,13,04,7.40
2008,04,02,13,05,7.40
2008,04,02,13,06,7.60
2008,04,02,13,07,7.60
2008,04,02,13,08,7.60
2008,04,02,13,09,7.60
2008,04,02,13,10,7.60
2008,04,02,13,11,7.60
2008,04,02,13,12,7.60
2008,04,02,13,13,7.60
2008,04,02,13,14,7.60
2008,04,02,13,15,7.60
2008,04,02,13,16,7.60
2008,04,02,13,17,7.60
2008,04,02,13,18,7.60
2008,04,02,13,19,7.60
2008,04,02,13,20,8.10
2008,04,02,13,21,8.10
2008,04,02,13,22,8.10
2008,04,02,13,23,8.10
2008,04,02,13,24,8.10
2008,04,02,13,25,8.10
2008,04,02,13,26,7.80
2008,04,02,13,27,7.80
2008,04,02,13,28,7.80
2008,04,02,13,29,7.80
2008,04,02,13,30,7.70
2008,04,02,13,31,7.70
2008,04,02,13,32,7.70
2008,04,02,13,33,7.70
2008,04,02,13,34,7.80
2008,04,02,13,35,7.80
2008,04,02,13,36,7.80
2008,04,02,13,37,7.80
2008,04,02,13,38,7.80
2008,04,02,13,39,7.80
2008,04,02,13,40,7.80
2008,04,02,13,41,7.80
2008,04,02,13,42,7.80
2008,04,02,13,43,7.80
2008,04,02,13,44,7.80
2008,04,02,13,45,7.80
2008,04,02,13,46,7.80
2008,04,02,13,47,7.80
2008,04,02,13,48,7.80
2008,04,02,13,49,7.80
2008,04,02,13,51,8.10
2008,04,02,13,52,8.10
2008,04,02,13,53,8.10
2008,04,02,13,54,8.10
2008,04,02,13,55,8.10
2008,04,02,13,56,7.80
2008,04,02,13,57,7.80
2008,04,02,13,58,7.80
2008,04,02,13,59,7.80
2008,04,02,14,01,7.80
2008,04,02,14,02,7.80
2008,04,02,14,03,7.80
2008,04,02,14,04,7.80
2008,04,02,14,05,7.80
2008,04,02,14,06,7.80
2008,04,02,14,07,7.80
2008,04,02,14,08,7.80
2008,04,02,14,09,7.80
2008,04,02,14,10,7.80
2008,04,02,14,11,7.80
2008,04,02,14,12,7.80
2008,04,02,14,13,7.80
2008,04,02,14,14,7.80
2008,04,02,14,15,7.80
2008,04,02,14,16,7.80
2008,04,02,14,17,7.80
2008,04,02,14,18,7.80
2008,04,02,14,19,7.80
2008,04,02,14,20,7.70
2008,04,02,14,21,7.70
2008,04,02,14,22,7.70
2008,04,02,14,23,7.70
2008,04,02,14,24,7.70
2008,04,02,14,25,7.70
2008,04,02,14,26,7.70
2008,04,02,14,27,7.70
2008,04,02,14,28,7.70
2008,04,02,14,29,7.70
2008,04,02,14,31,7.90
2008,04,02,14,32,7.90
2008,04,02,14,33,7.90
2008,04,02,14,34,7.90
2008,04,02,14,35,7.90
2008,04,02,14,36,7.90
2008,04,02,14,37,7.90
2008,04,02,14,38,7.90
2008,04,02,14,39,7.90
2008,04,02,14,40,7.90
2008,04,02,14,41,7.90
2008,04,02,14,42,7.90
2008,04,02,14,43,7.90
2008,04,02,14,44,7.90
2008,04,02,14,45,7.90
2008,04,02,14,46,7.90
2008,04,02,14,47,7.90
2008,04,02,14,48,7.90
2008,04,02,14,49,7.90
2008,04,02,14,50,7.80
2008,04,02,14,51,7.80
2008,04,02,14,52,7.80
2008,04,02,14,53,7.80
2008,04,02,14,54,7.80
2008,04,02,14,55,7.80
2008,04,02,14,56,7.90
2008,04,02,14,57,7.90
2008,04,02,14,58,7.90
2008,04,02,14,59,7.90
2008,04,02,15,00,7.90
2008,04,02,15,01,7.90
2008,04,02,15,02,7.90
2008,04,02,15,03,7.90
2008,04,02,15,04,7.90
2008,04,02,15,05,7.90
2008,04,02,15,06,7.90
2008,04,02,15,07,7.90
2008,04,02,15,08,7.90
2008,04,02,15,09,7.90
2008,04,02,15,10,7.90
2008,04,02,15,11,7.90
2008,04,02,15,12,7.90
2008,04,02,15,13,7.90
2008,04,02,15,14,7.90
2008,04,02,15,15,7.90
2008,04,02,15,16,7.90
2008,04,02,15,17,7.90
2008,04,02,15,18,7.90
2008,04,02,15,19,7.90
2008,04,02,15,20,7.80
2008,04,02,15,21,7.80
2008,04,02,15,22,7.80
2008,04,02,15,23,7.80
2008,04,02,15,24,7.80
2008,04,02,15,25,7.80
2008,04,02,15,26,7.80
2008,04,02,15,27,7.80
2008,04,02,15,28,7.80
2008,04,02,15,29,7.80
2008,04,02,15,30,7.90
2008,04,02,15,31,7.90
2008,04,02,15,32,7.90
2008,04,02,15,33,7.90
2008,04,02,15,34,8.00
2008,04,02,15,35,8.00
2008,04,02,15,36,8.00
2008,04,02,15,37,8.00
2008,04,02,15,38,8.00
2008,04,02,15,39,8.00
2008,04,02,15,40,8.00
2008,04,02,15,41,8.00
2008,04,02,15,42,8.00
2008,04,02,15,43,8.00
2008,04,02,15,44,8.00
2008,04,02,15,45,8.00
2008,04,02,15,46,8.00
2008,04,02,15,47,8.00
2008,04,02,15,48,8.00
2008,04,02,15,49,7.90
2008,04,02,15,50,7.90
2008,04,02,15,51,7.90
2008,04,02,15,52,7.90
2008,04,02,15,53,7.90
2008,04,02,15,54,7.90
2008,04,02,15,55,8.10
2008,04,02,15,56,8.10
2008,04,02,15,57,8.10
2008,04,02,15,58,8.10
2008,04,02,15,59,8.10
2008,04,02,16,00,7.90
2008,04,02,16,01,7.90
2008,04,02,16,02,7.90
2008,04,02,16,03,8.00
2008,04,02,16,04,8.00
2008,04,02,16,05,8.00
2008,04,02,16,06,8.00
2008,04,02,16,07,8.00
2008,04,02,16,08,8.00
2008,04,02,16,09,8.00
2008,04,02,16,10,8.00
2008,04,02,16,11,8.00
2008,04,02,16,12,8.00
2008,04,02,16,13,8.00
2008,04,02,16,14,8.00
2008,04,02,16,15,8.00
2008,04,02,16,16,8.00
2008,04,02,16,17,8.00
2008,04,02,16,18,8.00
2008,04,02,16,20,8.30
2008,04,02,16,21,8.30
2008,04,02,16,22,8.30
2008,04,02,16,23,8.30
2008,04,02,16,24,8.30
2008,04,02,16,25,8.20
2008,04,02,16,26,8.20
2008,04,02,16,27,8.20
2008,04,02,16,28,8.20
2008,04,02,16,29,8.20
2008,04,02,16,30,8.10
2008,04,02,16,31,8.10
2008,04,02,16,32,8.10
2008,04,02,16,33,8.10
2008,04,02,16,34,8.10
2008,04,02,16,35,8.10
2008,04,02,16,36,8.10
2008,04,02,16,37,8.10
2008,04,02,16,38,8.10
2008,04,02,16,39,8.10
2008,04,02,16,40,8.10
2008,04,02,16,41,8.10
2008,04,02,16,42,8.10
2008,04,02,16,43,8.10
2008,04,02,16,44,8.10
2008,04,02,16,45,8.10
2008,04,02,16,46,8.10
2008,04,02,16,47,8.10
2008,04,02,16,48,8.10
2008,04,02,16,49,8.10
2008,04,02,16,50,8.30
2008,04,02,16,51,8.30
2008,04,02,16,52,8.30
2008,04,02,16,53,8.30
2008,04,02,16,54,8.30
2008,04,02,16,55,8.30
2008,04,02,16,56,8.20
2008,04,02,16,57,8.20
2008,04,02,16,58,8.20
2008,04,02,16,59,8.20
2008,04,02,17,00,8.20
2008,04,02,17,01,8.30
2008,04,02,17,02,8.30
2008,04,02,17,03,8.30
2008,04,02,17,04,8.30
2008,04,02,17,05,8.20
2008,04,02,17,06,8.20
2008,04,02,17,07,8.20
2008,04,02,17,08,8.20
2008,04,02,17,09,8.20
2008,04,02,17,10,8.20
2008,04,02,17,11,8.20
2008,04,02,17,12,8.20
2008,04,02,17,13,8.20
2008,04,02,17,14,8.20
2008,04,02,17,15,8.20
2008,04,02,17,16,8.20
2008,04,02,17,17,8.20
2008,04,02,17,18,8.20
2008,04,02,17,19,8.20
2008,04,02,17,20,8.20
2008,04,02,17,21,8.20
2008,04,02,17,22,8.20
2008,04,02,17,23,8.20
2008,04,02,17,24,8.20
2008,04,02,17,25,8.20
2008,04,02,17,26,8.20
2008,04,02,17,27,8.20
2008,04,02,17,28,8.20
2008,04,02,17,29,8.20
2008,04,02,17,30,8.20
2008,04,02,17,31,8.20
2008,04,02,17,32,8.20
2008,04,02,17,33,8.20
2008,04,02,17,34,8.20
2008,04,02,17,35,8.20
2008,04,02,17,36,8.10
2008,04,02,17,38,8.10
2008,04,02,17,39,8.10
2008,04,02,17,40,8.10
2008,04,02,17,41,8.10
2008,04,02,17,42,8.10
2008,04,02,17,43,8.10
2008,04,02,17,44,8.10
2008,04,02,17,45,8.10
2008,04,02,17,46,8.10
2008,04,02,17,47,8.10
2008,04,02,17,48,8.10
2008,04,02,17,49,8.10
2008,04,02,17,50,8.10
2008,04,02,17,51,8.10
2008,04,02,17,52,8.20
2008,04,02,17,53,8.20
2008,04,02,17,54,8.20
2008,04,02,17,55,8.20
2008,04,02,17,56,8.20
2008,04,02,17,57,8.20
2008,04,02,17,58,8.20
2008,04,02,17,59,8.20
2008,04,02,18,00,8.20
2008,04,02,18,01,8.20
2008,04,02,18,02,8.20
2008,04,02,18,03,8.20
2008,04,02,18,04,8.20
2008,04,02,18,05,8.20
2008,04,02,18,06,8.20
2008,04,02,18,07,8.10
2008,04,02,18,08,8.10
2008,04,02,18,09,8.10
2008,04,02,18,10,8.10
2008,04,02,18,11,8.10
2008,04,02,18,12,8.10
2008,04,02,18,13,8.10
2008,04,02,18,14,8.10
2008,04,02,18,15,8.10
2008,04,02,18,16,8.10
2008,04,02,18,17,8.10
2008,04,02,18,18,8.10
2008,04,02,18,19,8.10
2008,04,02,18,20,8.10
2008,04,02,18,21,8.10
2008,04,02,18,22,8.10
2008,04,02,18,23,8.10
2008,04,02,18,24,8.10
2008,04,02,18,25,8.10
2008,04,02,18,26,8.10
2008,04,02,18,27,8.10
2008,04,02,18,28,8.10
2008,04,02,18,29,8.10
2008,04,02,18,30,8.10
2008,04,02,18,31,8.10
2008,04,02,18,32,8.10
2008,04,02,18,33,8.10
2008,04,02,18,34,8.10
2008,04,02,18,35,8.10
2008,04,02,18,36,8.10
2008,04,02,18,38,8.10
2008,04,02,18,39,8.10
2008,04,02,18,40,8.10
2008,04,02,18,41,8.10
2008,04,02,18,42,8.10
2008,04,02,18,43,8.10
2008,04,02,18,44,8.10
2008,04,02,18,45,8.10
2008,04,02,18,46,8.10
2008,04,02,18,47,8.10
2008,04,02,18,48,8.10
2008,04,02,18,49,8.10
2008,04,02,18,50,8.10
2008,04,02,18,51,8.10
2008,04,02,18,52,8.10
2008,04,02,18,53,8.10
2008,04,02,18,54,8.00
2008,04,02,18,55,8.00
2008,04,02,18,56,8.00
2008,04,02,18,57,8.00
2008,04,02,18,58,8.00
2008,04,02,19,00,7.90
2008,04,02,19,01,7.90
2008,04,02,19,02,7.90
2008,04,02,19,03,7.90
2008,04,02,19,04,7.90
2008,04,02,19,05,7.90
2008,04,02,19,06,7.90
2008,04,02,19,07,7.90
2008,04,02,19,08,7.90
2008,04,02,19,09,7.80
2008,04,02,19,10,7.80
2008,04,02,19,11,7.80
2008,04,02,19,12,7.80
2008,04,02,19,13,7.80
2008,04,02,19,14,7.80
2008,04,02,19,15,7.80
2008,04,02,19,16,7.80
2008,04,02,19,17,7.80
2008,04,02,19,18,7.80
2008,04,02,19,19,7.80
2008,04,02,19,20,7.80
2008,04,02,19,21,7.80
2008,04,02,19,22,7.80
2008,04,02,19,23,7.80
2008,04,02,19,24,7.80
2008,04,02,19,25,7.80
2008,04,02,19,26,7.80
2008,04,02,19,27,7.80
2008,04,02,19,28,7.80
2008,04,02,19,29,7.80
2008,04,02,19,30,7.80
2008,04,02,19,31,7.80
2008,04,02,19,32,7.80
2008,04,02,19,33,7.80
2008,04,02,19,34,7.70
2008,04,02,19,35,7.70
2008,04,02,19,36,7.70
2008,04,02,19,37,7.70
2008,04,02,19,39,7.60
2008,04,02,19,40,7.60
2008,04,02,19,42,7.60
2008,04,02,19,43,7.60
2008,04,02,19,44,7.60
2008,04,02,19,45,7.60
2008,04,02,19,46,7.60
2008,04,02,19,47,7.60
2008,04,02,19,48,7.60
2008,04,02,19,49,7.60
2008,04,02,19,50,7.60
2008,04,02,19,51,7.60
2008,04,02,19,52,7.60
2008,04,02,19,53,7.60
2008,04,02,19,54,7.50
2008,04,02,19,55,7.50
2008,04,02,19,56,7.50
2008,04,02,19,57,7.50
2008,04,02,19,58,7.50
2008,04,02,19,59,7.50
2008,04,02,20,00,7.60
2008,04,02,20,01,7.60
2008,04,02,20,02,7.60
2008,04,02,20,03,7.60
2008,04,02,20,04,7.60
2008,04,02,20,05,7.60
2008,04,02,20,06,7.60
2008,04,02,20,07,7.60
2008,04,02,20,08,7.60
2008,04,02,20,09,7.50
2008,04,02,20,10,7.50
2008,04,02,20,11,7.50
2008,04,02,20,12,7.50
2008,04,02,20,13,7.50